sat.trackr.live / text

‹ back to catalog

STARLINK-1333

NORAD 45580 · 2020-025BB

PAYLOAD ACTIVE UNKNOWN

§ Identity

Operator
Country
US
Launch date
2020-04-22
Launch site
AFETR
Launch vehicle
Mass (kg)
RCS (m²)

Purposes: comms

External: N2YO · Heavens-Above · Gunter

§ Orbital elements

Epoch: 2026-09-20T05:18:09.529632Z

Period
93.23 min
Inclination
53.1501°
Eccentricity
0.0003299
Mean motion
15.44543675 rev/d
Perigee alt
430.5 km
Apogee alt
435.0 km
Semi-major
6,810.9 km
B*
6.4921e-4
RAAN
245.8681°
Arg perigee
67.6606°
Mean anomaly
292.4750°
Rev number
35,540

§ Raw data

STARLINK-13331 45580U 20025BB  26263.22094363  .00030318  00000+0  64921-3 0  99982 45580  53.1501 245.8681 0003299  67.6606 292.4750 15.44543675355407

JSON: /api/v1/satellites/45580 · /tle

For live sub-satellite position, see the globe view (requires WebGL).

§ Visibility from observer

Set your observer location to see the next 7 days of passes ≥ 10°. The values pass through the URL so the page stays shareable.

No JS? Fill the form by hand. The geolocation button needs JavaScript.